Coleman, TX

8:26 AM CST on February 13, 2016 (GMT -0600)
Coleman Municipal

Weather History for KCOM - August, 2013

Change the Weather History Date:

Saturday, August 3, 2013

  Actual Average (KABI) Record (KABI)
Temperature  
Mean Temperature 86 °F 84 °F  
Max Temperature 99 °F 95 °F 111 °F (1943)
Min Temperature 74 °F 73 °F 61 °F (1949)
Degree Days  
Heating Degree Days 0 0  
Month to date heating degree days 0  
Since 1 June heating degree days 1  
Since 1 July heating degree days 0  
Cooling Degree Days 22 19  
Month to date cooling degree days 57  
Year to date cooling degree days 1450  
Since 1 June cooling degree days 1053  
Growing Degree Days 36 (Base 50)    
Moisture  
Dew Point 59 °F    
Average Humidity 42    
Maximum Humidity 67    
Minimum Humidity 24    
Precipitation  
Precipitation 0.00 in 0.08 in 6.30 in (1978)
Month to date precipitation 0.22  
Year to date precipitation 14.59  
Sea Level Pressure  
Sea Level Pressure 30.00 in    
Wind  
Wind Speed 9 mph (SSE)    
Max Wind Speed 14 mph    
Max Gust Speed 20 mph    
Visibility 10 miles    
Events      
T = Trace of Precipitation, MM = Missing Value Source: NWS Daily Summary

Daily Weather History Graph

Daily Weather History Graph

Search for Another Location

Airport or City:

Trip Planner

Search our weather history database for the weather conditions in past years. The results will help you decide how hot, cold, wet, or windy it might be!

Date:

Astronomy

Aug. 03, 2013 Rise Set
Actual Time 6:54 AM CDT 8:32 PM CDT
Civil Twilight 6:28 AM CDT 8:58 PM CDT
Nautical Twilight 5:56 AM CDT 9:30 PM CDT
Astronomical Twilight 5:23 AM CDT 10:03 PM CDT
Moon 4:07 AM CDT (8/3) 6:14 PM CDT (8/3)
Length of Visible Light 14h 30m
Length of Day
13h 37m
Waning Crescent, 9% of the Moon is Illuminated
Aug 3
Waning Crescent
Aug 6
New
Aug 14
First Quarter
Aug 20
Full
Aug 28
Last Quarter

Hourly Weather History & Observations

Time (CDT) Temp. Heat Index Dew Point Humidity Pressure Visibility Wind Dir Wind Speed Gust Speed Precip Events Conditions
12:15 AM 85.1 °F 84.3 °F 57.2 °F 39% 29.98 in 10.0 mi SSE 11.5 mph - N/A   Clear
12:35 AM 84.0 °F 83.3 °F 57.6 °F 40% 29.97 in 10.0 mi South 9.2 mph - N/A   Clear
12:55 AM 83.3 °F 82.9 °F 58.1 °F 42% 29.97 in 10.0 mi South 9.2 mph - N/A   Clear
1:15 AM 82.2 °F 82.1 °F 58.5 °F 44% 29.97 in 10.0 mi South 9.2 mph - N/A   Clear
1:35 AM 81.5 °F 81.7 °F 59.0 °F 46% 29.97 in 10.0 mi South 8.1 mph - N/A   Clear
1:55 AM 80.6 °F 81.1 °F 59.0 °F 48% 29.97 in 10.0 mi South 8.1 mph - N/A   Clear
2:15 AM 79.7 °F - 59.2 °F 49% 29.97 in 10.0 mi South 6.9 mph - N/A   Clear
2:35 AM 78.8 °F - 59.2 °F 51% 29.97 in 10.0 mi South 5.8 mph - N/A   Clear
2:55 AM 78.4 °F - 59.0 °F 51% 29.98 in 10.0 mi South 6.9 mph - N/A   Clear
3:15 AM 78.8 °F - 59.0 °F 51% 29.97 in 10.0 mi South 8.1 mph - N/A   Clear
3:35 AM 78.8 °F - 59.0 °F 51% 29.98 in 10.0 mi South 10.4 mph - N/A   Clear
3:55 AM 78.6 °F - 59.2 °F 51% 29.98 in 10.0 mi South 9.2 mph - N/A   Clear
4:15 AM 77.5 °F - 59.9 °F 54% 29.99 in 10.0 mi South 6.9 mph - N/A   Clear
4:35 AM 76.5 °F - 59.9 °F 56% 29.99 in 10.0 mi South 6.9 mph - N/A   Clear
4:55 AM 75.9 °F - 60.3 °F 58% 29.99 in 10.0 mi South 5.8 mph - N/A   Clear
5:15 AM 75.2 °F - 60.8 °F 61% 29.99 in 10.0 mi South 6.9 mph - N/A   Clear
5:35 AM 74.7 °F - 61.2 °F 63% 29.99 in 10.0 mi South 5.8 mph - N/A   Clear
5:55 AM 74.5 °F - 61.7 °F 64% 29.99 in 10.0 mi South 4.6 mph - N/A   Clear
6:15 AM 74.3 °F - 62.1 °F 65% 29.99 in 10.0 mi South 5.8 mph - N/A   Clear
6:35 AM 74.3 °F - 62.6 °F 67% 29.99 in 10.0 mi South 6.9 mph - N/A   Clear
6:55 AM 74.3 °F - 62.6 °F 67% 30.00 in 10.0 mi South 6.9 mph - N/A   Clear
7:15 AM 74.5 °F - 62.6 °F 66% 30.01 in 10.0 mi SSW 6.9 mph - N/A   Clear
7:35 AM 74.7 °F - 63.0 °F 67% 30.01 in 10.0 mi South 6.9 mph - N/A   Clear
7:55 AM 75.6 °F - 63.5 °F 66% 30.02 in 10.0 mi South 6.9 mph - N/A   Clear
8:15 AM 76.6 °F - 63.7 °F 64% 30.03 in 10.0 mi South 8.1 mph - N/A   Clear
8:35 AM 78.1 °F - 63.7 °F 61% 30.03 in 10.0 mi SSW 9.2 mph - N/A   Clear
8:55 AM 79.2 °F - 64.2 °F 60% 30.03 in 10.0 mi SSW 9.2 mph - N/A   Clear
9:15 AM 80.4 °F 81.8 °F 63.3 °F 56% 30.03 in 10.0 mi SW 9.2 mph - N/A   Clear
9:35 AM 81.7 °F 83.0 °F 63.5 °F 54% 30.03 in 10.0 mi South 10.4 mph - N/A   Clear
9:55 AM 83.3 °F 84.4 °F 63.5 °F 51% 30.03 in 10.0 mi SSW 12.7 mph - N/A   Clear
10:15 AM 84.2 °F 85.2 °F 63.3 °F 49% 30.03 in 10.0 mi South 13.8 mph 19.6 mph N/A   Clear
10:35 AM 85.3 °F 86.1 °F 63.0 °F 47% 30.04 in 10.0 mi SSW 11.5 mph - N/A   Clear
10:55 AM 86.5 °F 87.0 °F 62.4 °F 44% 30.05 in 10.0 mi SW 11.5 mph - N/A   Clear
11:15 AM 87.3 °F 87.7 °F 62.2 °F 43% 30.05 in 10.0 mi South 10.4 mph - N/A   Clear
11:35 AM 88.7 °F 89.1 °F 62.1 °F 41% 30.05 in 10.0 mi SSW 11.5 mph 16.1 mph N/A   Clear
11:55 AM 90.0 °F 90.6 °F 62.4 °F 40% 30.05 in 10.0 mi South 10.4 mph - N/A   Clear
12:15 PM 90.3 °F 90.8 °F 62.1 °F 39% 30.04 in 10.0 mi South 9.2 mph 17.3 mph N/A   Clear
12:35 PM 91.8 °F 92.2 °F 62.2 °F 37% 30.04 in 10.0 mi SSW 9.2 mph - N/A   Clear
12:55 PM 91.6 °F 92.0 °F 62.2 °F 37% 30.03 in 10.0 mi South 9.2 mph - N/A   Clear
1:15 PM 92.8 °F 93.1 °F 61.3 °F 35% 30.03 in 10.0 mi SSW 9.2 mph - N/A   Clear
1:35 PM 93.0 °F 93.0 °F 61.0 °F 34% 30.03 in 10.0 mi South 9.2 mph - N/A   Clear
1:55 PM 95.0 °F 95.2 °F 60.4 °F 32% 30.03 in 10.0 mi South 10.4 mph - N/A   Clear
2:15 PM 95.4 °F 95.3 °F 59.9 °F 31% 30.02 in 10.0 mi SSW 5.8 mph - N/A   Clear
2:35 PM 95.4 °F 94.9 °F 59.5 °F 30% 30.01 in 10.0 mi Calm Calm - N/A   Clear
2:55 PM 97.0 °F 96.5 °F 58.8 °F 28% 30.00 in 10.0 mi SSE 10.4 mph - N/A   Clear
3:15 PM 96.4 °F 95.7 °F 58.3 °F 28% 29.99 in 10.0 mi South 11.5 mph - N/A   Clear
3:35 PM 97.3 °F 96.2 °F 57.6 °F 26% 29.99 in 10.0 mi South 10.4 mph - N/A   Clear
3:55 PM 98.1 °F 97.2 °F 57.7 °F 26% 29.98 in 10.0 mi ESE 9.2 mph - N/A   Clear
4:15 PM 98.1 °F 97.2 °F 57.2 °F 26% 29.98 in 10.0 mi South 3.5 mph - N/A   Clear
4:35 PM 98.4 °F 97.8 °F 57.7 °F 26% 29.97 in 10.0 mi SSE 5.8 mph - N/A   Clear
4:55 PM 98.2 °F 97.1 °F 57.0 °F 25% 29.97 in 10.0 mi SSE 10.4 mph - N/A   Clear
5:15 PM 98.8 °F 97.4 °F 56.7 °F 24% 29.97 in 10.0 mi SSE 12.7 mph 18.4 mph N/A   Clear
5:35 PM 99.0 °F 97.7 °F 56.5 °F 24% 29.97 in 10.0 mi South 4.6 mph - N/A   Clear
5:55 PM 98.8 °F 97.4 °F 56.3 °F 24% 29.97 in 10.0 mi SE 9.2 mph - N/A   Clear
6:15 PM 98.2 °F 97.1 °F 56.7 °F 25% 29.96 in 10.0 mi SE 9.2 mph - N/A   Clear
6:35 PM 97.7 °F 96.7 °F 57.7 °F 26% 29.96 in 10.0 mi ESE 9.2 mph - N/A   Clear
6:55 PM 97.5 °F 96.1 °F 56.3 °F 25% 29.96 in 10.0 mi SE 10.4 mph - N/A   Clear
7:15 PM 97.2 °F 95.2 °F 54.7 °F 24% 29.96 in 10.0 mi SE 11.5 mph - N/A   Clear
7:35 PM 96.4 °F 94.3 °F 54.1 °F 24% 29.96 in 10.0 mi SE 11.5 mph - N/A   Clear
7:55 PM 95.0 °F 93.4 °F 55.9 °F 27% 29.96 in 10.0 mi SE 9.2 mph - N/A   Clear
8:15 PM 93.6 °F 91.8 °F 55.4 °F 28% 29.96 in 10.0 mi SE 9.2 mph - N/A   Clear
8:35 PM 91.8 °F 89.8 °F 55.6 °F 29% 29.97 in 10.0 mi SE 9.2 mph - N/A   Clear
8:55 PM 90.7 °F 89.2 °F 56.7 °F 32% 29.98 in 10.0 mi SE 10.4 mph - N/A   Clear
9:15 PM 89.8 °F 88.1 °F 56.7 °F 32% 29.98 in 10.0 mi SE 10.4 mph - N/A   Clear
9:35 PM 89.6 °F 87.9 °F 56.1 °F 32% 29.99 in 10.0 mi SE 11.5 mph - N/A   Clear
9:55 PM 88.9 °F 87.3 °F 55.9 °F 33% 30.00 in 10.0 mi SE 11.5 mph - N/A   Clear
10:15 PM 88.2 °F 86.5 °F 55.9 °F 33% 30.01 in 10.0 mi SE 11.5 mph 16.1 mph N/A   Clear
10:35 PM 87.8 °F 86.3 °F 56.1 °F 34% 30.02 in 10.0 mi SE 11.5 mph - N/A   Clear
10:55 PM 86.2 °F 84.9 °F 56.7 °F 36% 30.03 in 10.0 mi SE 8.1 mph - N/A   Clear
11:15 PM 85.3 °F 84.4 °F 57.4 °F 39% 30.03 in 10.0 mi SE 8.1 mph - N/A   Clear
11:35 PM 84.2 °F 83.7 °F 58.1 °F 41% 30.04 in 10.0 mi SE 6.9 mph - N/A   Clear
11:55 PM 83.5 °F 83.2 °F 58.6 °F 43% 30.04 in 10.0 mi SE 6.9 mph - N/A   Clear